Weather in Afipsky

Russia / Krasnodar Krai     44°54′12″N   38°50′28″E
temp.,
°C
wind,
m/s
gust,
m/s
humid.,
%
clouds,
%
prec.,
mm/h
press.,
hPa
HPBL,
m
22 april, thu
thu2200:00+8w118794 0.0 102111
03:00+7wnw1188100 0.0 102212
06:00+7nw119084 0.0 102212
09:00+12n117496 0.0 1023412
12:00+16n1158100 0.0 1022994
15:00+17w3353100 0.1 10221570
18:00+14sw237371 0.3 1022204
21:00+10wnw35850 0.3 102485
23 april, fri
fri2300:00+7wsw22850 0.0 102423
03:00+7sw11820 0.0 102411
06:00+7s22840 0.0 102515
09:00+13ssw22654 0.0 1025411
12:00+17wsw24485 0.0 10231577
15:00+18sw3445100 0.0 10221902
18:00+16ssw2366100 0.0 102069
21:00+12s1168100 0.0 102016
24 april, sat
sat2400:00+11w3469100 0.0 102064
03:00+11sse226591 0.0 102028
06:00+9ssw34775 0.0 101975
09:00+15w476543 0.0 1020781
12:00+17wnw465881 0.1 10191433
15:00+16wnw576669 0.8 1019800
18:00+13nw457599 0.1 1021685
21:00+11wnw3565100 0.1 1022234
25 april, sun
sun2500:00+8wnw2265100 0.0 102251
03:00+8wsw1165100 0.0 102213
06:00+7nne1273100 0.0 102225
09:00+11ne4569100 0.0 1021579
12:00+13ne4559100 0.0 10201214
15:00+10ene3691100 3.8 1019461
18:00+9ene5996100 7.3 1017571
21:00+9ne5997100 11.4 1017519
26 april, mon
mon2600:00+9ne51097100 5.1 1016512
03:00+9ne3698100 6.7 1016525
06:00+8ne3698100 2.4 1016306
09:00+9nne3496100 3.4 1017312
12:00+10n3492100 0.9 1017469
15:00+10nne4588100 1.0 1017607
18:00+11ne2385100 0.1 1018512
21:00+8ne2293100 0.1 101818